Regional Weather Roundup
Issued by NWS

Home | Current Version | Previous Version | Text Only | Print | Product List | Glossary On
Versions: 1 2 3 4 5 6 7 8 9 10 11 12 13 14 15 16 17 18 19 20 21 22 23 24 25 26 27 28 29 30 31 32 33 34 35 36 37 38 39 40 41 42 43 44 45 46 47 48 49 50
000
ASUS43 KMKX 110310
RWRWI

WISCONSIN REGIONAL WEATHER ROUNDUP
NATIONAL WEATHER SERVICE MILWAUKEE/SULLIVAN WI
900 PM CST WED FEB 10 2016

NOTE: "FAIR" INDICATES FEW OR NO CLOUDS BELOW 12,000 FEET WITH NO
SIGNIFICANT WEATHER AND/OR OBSTRUCTIONS TO VISIBILITY.

WIZ001-002-006>008-014>016-023>028-110400-
NORTHWEST WISCONSIN

CITY           SKY/WX    TMP DP  RH WIND       PRES   REMARKS
SUPERIOR ARPT  PTCLDY     5  -7  56 N6        30.25R WCI  -5
ASHLAND        CLOUDY     2  -3  80 W7        30.21R WCI -11
HAYWARD        MOCLDY    -4  -9  79 CALM      30.17S
SIREN          CLOUDY     4  -6  62 CALM      30.22S
CUMBERLAND     CLOUDY     5  -6  61 NW6       30.18R WCI  -6
RICE LAKE      CLOUDY     6  -4  64 NW3       30.21R
CHETEK         CLOUDY     4  -4  70 CALM      30.20R
LADYSMITH      CLOUDY     0  -5  78 CALM      30.17S
EAU CLAIRE     CLOUDY     7  -5  57 NW3       30.20R
MENOMONIE      CLOUDY     8  -3  60 NW5       30.21R WCI  -1
NEW RICHMOND   CLOUDY     6  -2  67 NW5       30.22R WCI  -2
OSCEOLA        CLOUDY     8  -2  64 CALM      30.26S
$$

WIZ003>005-009-010-017-018-110400-
NORTH CENTRAL WISCONSIN

CITY           SKY/WX    TMP DP  RH WIND       PRES   REMARKS
MANITOWISH WTR CLOUDY     5  -1  76 NW7       30.08S WCI  -7
ARBOR VITAE    CLOUDY     8   2  75 NW6       30.08R WCI  -2
WOODRUFF       CLOUDY     8   2  75 NW6       30.08R WCI  -2
RHINELANDER    CLOUDY     6  -3  66 VRB7      30.08R WCI  -6
EAGLE RIVER    CLOUDY     6  -3  67 N6        30.06R WCI  -5
LAND O LAKES   CLOUDY     7   0  74 NW7       30.06R WCI  -5
PHILLIPS       CLOUDY    -6  -9  86 NW3       30.12R
TOMAHAWK       CLOUDY     6  -3  67 NW7       30.11R WCI  -6
MEDFORD        CLEAR      2  -5  73 N6        30.11R WCI  -9
MERRILL        MOCLDY     4  -4  68 N7        30.12R WCI  -8
$$

WIZ029-030-035-036-043>047-110400-
CENTRAL WISCONSIN

CITY           SKY/WX    TMP DP  RH WIND       PRES   REMARKS
WAUSAU         PTCLDY     6  -4  63 NW7       30.12R WCI  -6
MOSINEE        CLEAR      5  -4  66 N6        30.13R WCI  -6
MARSHFIELD     CLOUDY     2  -8  63 NW8       30.12R WCI -12
STEVENS POINT  CLEAR      3  -6  66 N5        30.14R WCI  -7
WAUPACA        PTCLDY     8  -5  54 NW3       30.15R
WAUTOMA        PTCLDY     2  -7  66 NW7       30.16R WCI -10
WISC RAPIDS    CLEAR      4  -6  63 NW6       30.16R WCI  -7
CAMP DOUGLAS   MOCLDY     0  -4  85 W6        30.16R WCI -12
$$

WIZ011>013-019>022-031-037>040-048>050-110400-
NORTHEAST WISCONSIN

CITY           SKY/WX    TMP DP  RH WIND       PRES   REMARKS
ANTIGO         CLOUDY     2  -6  70 NW5       30.08R WCI  -8
SHAWANO        CLEAR      9  -4  55 NW3       30.14R
OCONTO         CLEAR      5  -6  61 CALM      30.14R
STURGEON BAY   CLEAR      7  -6  56 N12       30.12S WCI  -9
GREEN BAY      CLEAR      3  -7  63 N6        30.13R WCI  -8
MANITOWOC      CLEAR      7  -4  60 NW7       30.13R WCI  -5
APPLETON       PTCLDY     7  -8  51 NW7       30.10R WCI  -5
CLINTONVILLE   CLEAR      9  -6  52 N6        30.14R WCI  -1
OSHKOSH        CLEAR      5  -6  60 W7        30.13R WCI  -7
$$

WIZ032>034-041-042-053>061-110400-
SOUTHWEST WISCONSIN

CITY           SKY/WX    TMP DP  RH WIND       PRES   REMARKS
LA CROSSE      CLOUDY     7  -3  64 N8        30.22R WCI  -6
SPARTA         CLOUDY     1  -4  79 CALM      30.20R
VIROQUA        CLOUDY     2  -6  71 NW5       30.14R WCI  -8
BOSCOBEL       CLOUDY     6  -2  69 CALM      30.21R
PRAIRIE DU CHI CLOUDY    12  -1  56 NW6       30.21R WCI   2
PLATTEVILLE    CLOUDY    10   0  65 N5        30.15R WCI   1
$$

WIZ056-057-062-063-064-067-068-110400-
SOUTH CENTRAL WISCONSIN

CITY           SKY/WX    TMP DP  RH WIND       PRES   REMARKS
REEDSBURG      CLEAR      6  -3  63 CALM      30.16R
BARABOO/DELLS  CLEAR      6  -4  64 NW3       30.14R
LONE ROCK      MOCLDY     4  -3  73 CALM      30.19R
MINERAL POINT  PTCLDY     9  -4  56 CALM      30.14R
MADISON        CLEAR      6  -3  66 NW6       30.15R WCI  -4
MIDDLETON      CLEAR      7  -1  69 N5        30.15R WCI  -2
WATERTOWN      CLEAR      8  -1  66 NW5       30.14R WCI   0
MONROE         PTCLDY    10   1  67 NW6       30.13R WCI   1
JANESVILLE     CLEAR     12   1  62 CALM      30.15R
$$

WIZ051-052-058>065-066-070>072-110400-
SOUTHEAST WISCONSIN

CITY           SKY/WX    TMP DP  RH WIND       PRES   REMARKS
MILWAUKEE      PTCLDY    10  -2  58 NW6       30.13S WCI   0
WAUKESHA       CLEAR      5  -2  72 W5        30.13R WCI  -4
MILWAUKEE/TIMM CLEAR      7  -4  61 W3        30.14R
RACINE         CLEAR      8  -3  61 W3        30.14S
BURLINGTON     CLEAR      4  -3  72 W5        30.13R WCI  -5
KENOSHA        CLEAR      8  -1  66 NW3       30.13R
FOND DU LAC    CLEAR      7  -4  60 W10       30.13R WCI  -8
SHEBOYGAN      CLEAR      4  -6  63 NW3       30.12R
WEST BEND      CLEAR      5   0  78 CALM      30.11R
JUNEAU         CLEAR      6  -3  64 NW5       30.13R WCI  -2
$$

LSZ147-162-110400-
LAKE SUPERIOR

STATION/POSITION TIME  TEMP    WIND        PRES    WAVE
                       AIR SEA DIR/SP/G            HT/PER
                 (UTC) (F)     (DEG/KT/KT) (MB)    (FT/S)
DEVILS ISLAND    0300    9     330/ 15/ 20 1024.7R
PORT WING        0200   11     330/ 14/ 18 1023.0R
SAXON HARBOR     0200    7                 1022.0R
$$

LMZ867-665-643>646-110400-
LAKE MICHIGAN

STATION/POSITION TIME  TEMP    WIND        PRES    WAVE
                       AIR SEA DIR/SP/G            HT/PER
                 (UTC) (F)     (DEG/KT/KT) (MB)    (FT/S)
CHAMBERS ISLAND  0200    9     300/ 15/ 22 1019.6R
ALGOMA LAKESHORE 0211          340/  6/  9   N/A
KEWAUNEE LAKESHO 0200    9                   N/A
SHEBOYGAN LAKESH 0300   10     300/  8/  9 1021.9R
PORT WASHINGTON  0240    9     290/  5/  6 1021.3S
MILWAUKEE LAKESH 0210   12     310/  7/  8   N/A
KENOSHA   LAKESH 0300   10     300/  6/  9 1020.7R
$$

TC  - TEMPERATURE IN CELSIUS
VSB - VISIBILITY IN STATUTE MILES
WCI - WIND CHILL INDEX
HX  - HEAT INDEX




USA.gov is the U.S. government's official web portal to all federal, state and local government web resources and services.